ATLAS 5 CENTAUR DEB, 43952

Orbit data source: Space-Track

ATLAS 5 CENTAUR DEB, 43952 is space debris in HEO originally from a launch on Wed, 17 Sep 2014 UTC launched from the Air Force Eastern Test Range (AFETR). Debris objects in space refer to the collection of defunct objects orbiting the Earth. Examples of debris include non-operational satellites, rocket bodies, and fragments generated from explosions, collisions, or faulty payload assembly.

Loading next visibility...
Identifier
43952, 2014-055F
Orbit
HEO
Country
Flag of USUS
Related business
Flag of USUnited Launch Alliance/Lockheed Martin (US)
Manufacturer
Unknown
Mission
Spacecraft
Bus & Motor
Unknown
Mass
Unknown
Launch date (UTC)
2014-09-17 (11 years ago)
Launch vehicle
Unknown
Launch site
Air Force Eastern Test Range (AFETR)
Object type
Payload
Rocket body
Debris
Shape & HBR
Unknown shape, 1.1 m
Radar Cross Section
RCS unknown

Expand to show TLE details & history
Last TLE update: 3 months ago

TLE from 3 months ago
0 ATLAS 5 CENTAUR DEB
1 43952U 14055F   25252.21145451  .00000200  00000-0  00000-0 0  9999
2 43952  21.0313 110.2002 5071343 230.2010  72.9106  1.97454896 50476
Epoch: 2025-09-09T05:04Z
TLE epoch observation values (Epoch: 2025-09-09T05:04:29.669Z)
Latitude
-0.00001°
Longitude
45.66597°
Altitude
23,138.753 km
Speed
3.487 km/s
True Right ascension
07h 21m 10s
True Declination
0° 00' 00"
Sunlit
Object was in daylight at epoch
Visualization orbit readout
Latitude
Unknown
Longitude
Unknown
Altitude
Unknown
Speed
Unknown
Apparent Right ascension
Unknown
Apparent Declination
Unknown
Sunlit
N/A
Visualization observer readout
Local Sidereal Time
05:04:08
Azimuth
Unknown
Elevation
Unknown
Doppler factor
Unknown
Orbital elements
Apogee altitude
34,074.073 km
Perigee altitude
6,850.616 km
Semi-major axis
26,840.481 km
Eccentricity
0.50713
Inclination
21.0313°
RAAN
110.2002°
Arg. of periapsis
230.201°
True anomaly
129.83086°
Mean anomaly
72.9106°
Eccentric anomaly
101.39455°
Mean motion
0.49358 °/min
Orbital period
729.36 mins
BSTAR
0
Loading maneuver chart data...
Computing Atmospheric mass density...

Documentation

Showing up to 5 results
|